{"data":{"norad_id":62907,"epoch":"2026-05-25T00:10:11.824320Z","epoch_age_seconds":64629,"freshness":"FRESH","line1":"1 62907U 25027A   26145.00708130  .00176190  00000+0  13457-2 0  9992","line2":"2 62907  43.0003 247.7597 0000287   1.5491 358.5377 15.70875304 75194","mean_motion":15.70875304,"eccentricity":2.87e-5,"inclination_deg":43.0003,"raan_deg":247.7597,"arg_perigee_deg":1.5491,"mean_anomaly_deg":358.5377,"bstar":0.0013457,"rev_number":7519,"period_min":91.668638263855,"perigee_km":356.20087697488,"apogee_km":356.58743906335,"semimajor_km":6734.5311580191,"source":"CELESTRAK","updated_at":"2026-05-25T13:38:19.816608Z"}}